Time,TemperatureF,DewpointF,PressureIn,WindDirection,WindDirectionDegrees,WindSpeedMPH,WindSpeedGustMPH,Humidity,HourlyPrecipIn,Conditions,Clouds,dailyrainin,SoftwareType,DateUTC
2013-03-28 00:01:00,30.9,25.2,30.03,South,180,6.7,-999.0,79,-99.99,,,0.00,Acu-Link.com,2013-03-28 06:01:00,
2013-03-28 00:16:00,30.7,25.0,30.03,SSE,157,7.8,-999.0,79,-99.99,,,0.00,Acu-Link.com,2013-03-28 06:16:00,
2013-03-28 00:32:00,30.4,24.7,30.03,South,180,8.9,-999.0,79,-99.99,,,0.00,Acu-Link.com,2013-03-28 06:32:00,
2013-03-28 00:47:00,29.7,24.6,30.03,South,180,5.1,-999.0,81,-99.99,,,0.00,Acu-Link.com,2013-03-28 06:47:00,
2013-03-28 01:02:00,29.1,24.3,30.04,South,180,5.8,-999.0,82,-99.99,,,0.00,Acu-Link.com,2013-03-28 07:02:00,
2013-03-28 01:17:00,29.7,24.9,30.04,South,180,6.7,-999.0,82,-99.99,,,0.00,Acu-Link.com,2013-03-28 07:17:00,
2013-03-28 01:32:00,29.5,24.7,30.04,South,180,7.8,-999.0,82,-99.99,,,0.00,Acu-Link.com,2013-03-28 07:32:00,
2013-03-28 01:47:00,29.1,24.6,30.03,SSW,202,7.8,-999.0,83,-99.99,,,0.00,Acu-Link.com,2013-03-28 07:47:00,
2013-03-28 02:03:00,30.0,25.2,30.03,South,180,6.7,-999.0,82,-99.99,,,0.00,Acu-Link.com,2013-03-28 08:03:00,
2013-03-28 02:18:00,30.4,25.3,30.03,South,180,7.8,-999.0,81,-99.99,,,0.00,Acu-Link.com,2013-03-28 08:18:00,
2013-03-28 02:33:00,30.2,25.1,30.02,South,180,8.9,-999.0,81,-99.99,,,0.00,Acu-Link.com,2013-03-28 08:33:00,
2013-03-28 02:49:00,29.8,25.0,30.02,South,180,5.1,-999.0,82,-99.99,,,0.00,Acu-Link.com,2013-03-28 08:49:00,
2013-03-28 03:04:00,28.9,24.7,30.02,South,180,6.3,-999.0,84,-99.99,,,0.00,Acu-Link.com,2013-03-28 09:04:00,
2013-03-28 03:19:00,28.6,24.4,30.02,SE,135,3.1,-999.0,84,-99.99,,,0.00,Acu-Link.com,2013-03-28 09:19:00,
2013-03-28 03:34:00,28.4,24.2,30.03,South,180,4.3,-999.0,84,-99.99,,,0.00,Acu-Link.com,2013-03-28 09:34:00,
2013-03-28 03:49:00,28.0,24.1,30.02,SE,135,5.1,-999.0,85,-99.99,,,0.00,Acu-Link.com,2013-03-28 09:49:00,
2013-03-28 04:04:00,28.4,24.2,30.01,SSW,202,4.7,-999.0,84,-99.99,,,0.00,Acu-Link.com,2013-03-28 10:04:00,
2013-03-28 04:20:00,27.1,23.5,30.01,SSE,157,4.3,-999.0,86,-99.99,,,0.00,Acu-Link.com,2013-03-28 10:20:00,
2013-03-28 04:35:00,26.6,23.3,30.01,SSW,202,2.7,-999.0,87,-99.99,,,0.00,Acu-Link.com,2013-03-28 10:35:00,
2013-03-28 04:50:00,27.5,23.9,30.02,SSW,202,4.7,-999.0,86,-99.99,,,0.00,Acu-Link.com,2013-03-28 10:50:00,
2013-03-28 05:05:00,28.0,24.1,30.01,SW,225,4.7,-999.0,85,-99.99,,,0.00,Acu-Link.com,2013-03-28 11:05:00,
2013-03-28 05:20:00,27.3,23.7,30.01,SW,225,2.7,-999.0,86,-99.99,,,0.00,Acu-Link.com,2013-03-28 11:20:00,
2013-03-28 05:36:00,28.0,24.1,30.02,SSE,157,5.1,-999.0,85,-99.99,,,0.00,Acu-Link.com,2013-03-28 11:36:00,
2013-03-28 05:51:00,27.9,23.9,30.01,South,180,6.7,-999.0,85,-99.99,,,0.00,Acu-Link.com,2013-03-28 11:51:00,
2013-03-28 06:06:00,29.1,24.9,30.01,SSE,157,4.7,-999.0,84,-99.99,,,0.00,Acu-Link.com,2013-03-28 12:06:00,
2013-03-28 06:21:00,28.6,24.4,30.01,SSE,157,7.8,-999.0,84,-99.99,,,0.00,Acu-Link.com,2013-03-28 12:21:00,
2013-03-28 06:36:00,28.2,24.3,30.02,SW,225,2.7,-999.0,85,-99.99,,,0.00,Acu-Link.com,2013-03-28 12:36:00,
2013-03-28 06:52:00,27.9,24.5,30.02,South,180,1.6,-999.0,87,-99.99,,,0.00,Acu-Link.com,2013-03-28 12:52:00,
2013-03-28 07:07:00,27.7,24.3,30.03,SW,225,2.7,-999.0,87,-99.99,,,0.00,Acu-Link.com,2013-03-28 13:07:00,
2013-03-28 07:22:00,28.4,24.8,30.03,WSW,247,2.2,-999.0,86,-99.99,,,0.00,Acu-Link.com,2013-03-28 13:22:00,
2013-03-28 07:38:00,31.1,26.0,30.04,WSW,247,4.3,-999.0,81,-99.99,,,0.00,Acu-Link.com,2013-03-28 13:38:00,
2013-03-28 07:53:00,32.9,26.8,30.04,SSE,157,2.7,-999.0,78,-99.99,,,0.00,Acu-Link.com,2013-03-28 13:53:00,
2013-03-28 08:08:00,34.0,27.2,30.04,South,180,4.7,-999.0,76,-99.99,,,0.00,Acu-Link.com,2013-03-28 14:08:00,
2013-03-28 08:23:00,34.3,27.3,30.04,South,180,6.7,-999.0,75,-99.99,,,0.00,Acu-Link.com,2013-03-28 14:23:00,
2013-03-28 08:38:00,35.1,27.6,30.04,ESE,112,3.8,-999.0,74,-99.99,,,0.00,Acu-Link.com,2013-03-28 14:38:00,
2013-03-28 08:54:00,36.1,28.7,30.04,ESE,112,3.8,-999.0,74,-99.99,,,0.00,Acu-Link.com,2013-03-28 14:54:00,
2013-03-28 09:09:00,36.3,28.2,30.04,ESE,112,4.7,-999.0,72,-99.99,,,0.00,Acu-Link.com,2013-03-28 15:09:00,
2013-03-28 09:24:00,36.7,29.8,30.04,ENE,67,4.7,-999.0,76,-99.99,,,0.00,Acu-Link.com,2013-03-28 15:24:00,
2013-03-28 09:39:00,38.5,29.9,30.04,ESE,112,7.4,-999.0,71,-99.99,,,0.00,Acu-Link.com,2013-03-28 15:39:00,
2013-03-28 09:55:00,39.6,30.2,30.05,ESE,112,7.4,-999.0,69,-99.99,,,0.00,Acu-Link.com,2013-03-28 15:55:00,
2013-03-28 10:10:00,39.9,31.3,30.04,East,90,5.1,-999.0,71,-99.99,,,0.00,Acu-Link.com,2013-03-28 16:10:00,
2013-03-28 10:25:00,39.9,31.6,30.05,NNE,22,5.8,-999.0,72,-99.99,,,0.00,Acu-Link.com,2013-03-28 16:25:00,
2013-03-28 10:41:00,40.6,32.3,30.06,East,90,5.1,-999.0,72,-99.99,,,0.00,Acu-Link.com,2013-03-28 16:41:00,
2013-03-28 10:56:00,40.6,32.3,30.06,ESE,112,5.8,-999.0,72,-99.99,,,0.00,Acu-Link.com,2013-03-28 16:56:00,
2013-03-28 11:11:00,41.4,32.7,30.06,SE,135,6.3,-999.0,71,-99.99,,,0.00,Acu-Link.com,2013-03-28 17:11:00,
2013-03-28 11:27:00,42.4,33.0,30.06,ESE,112,7.4,-999.0,69,-99.99,,,0.00,Acu-Link.com,2013-03-28 17:27:00,
2013-03-28 11:42:00,42.6,33.2,30.06,ESE,112,6.3,-999.0,69,-99.99,,,0.00,Acu-Link.com,2013-03-28 17:42:00,
2013-03-28 11:57:00,45.0,35.0,30.06,East,90,4.7,-999.0,68,-99.99,,,0.00,Acu-Link.com,2013-03-28 17:57:00,
2013-03-28 12:12:00,44.8,33.4,30.06,ENE,67,3.1,-999.0,64,-99.99,,,0.00,Acu-Link.com,2013-03-28 18:12:00,
2013-03-28 12:28:00,45.7,34.6,30.05,ESE,112,7.8,-999.0,65,-99.99,,,0.00,Acu-Link.com,2013-03-28 18:28:00,
2013-03-28 12:43:00,46.6,34.3,30.05,ESE,112,6.7,-999.0,62,-99.99,,,0.00,Acu-Link.com,2013-03-28 18:43:00,
2013-03-28 12:58:00,46.9,33.8,30.05,ESE,112,5.1,-999.0,60,-99.99,,,0.00,Acu-Link.com,2013-03-28 18:58:00,
2013-03-28 13:13:00,48.0,34.8,30.05,ESE,112,4.3,-999.0,60,-99.99,,,0.00,Acu-Link.com,2013-03-28 19:13:00,
2013-03-28 13:28:00,48.0,34.0,30.05,East,90,5.8,-999.0,58,-99.99,,,0.00,Acu-Link.com,2013-03-28 19:28:00,
2013-03-28 13:44:00,49.5,34.4,30.04,ESE,112,6.3,-999.0,56,-99.99,,,0.00,Acu-Link.com,2013-03-28 19:44:00,
2013-03-28 13:59:00,49.1,34.1,30.04,ESE,112,4.7,-999.0,56,-99.99,,,0.00,Acu-Link.com,2013-03-28 19:59:00,
2013-03-28 14:14:00,50.2,34.2,30.03,East,90,4.7,-999.0,54,-99.99,,,0.00,Acu-Link.com,2013-03-28 20:14:00,
2013-03-28 14:30:00,50.0,34.0,30.03,ESE,112,5.8,-999.0,54,-99.99,,,0.00,Acu-Link.com,2013-03-28 20:30:00,
2013-03-28 14:45:00,51.4,34.9,30.03,ENE,67,3.8,-999.0,53,-99.99,,,0.00,Acu-Link.com,2013-03-28 20:45:00,
2013-03-28 15:00:00,51.6,35.1,30.03,ESE,112,2.7,-999.0,53,-99.99,,,0.00,Acu-Link.com,2013-03-28 21:00:00,
2013-03-28 15:16:00,52.0,36.3,30.02,ENE,67,6.7,-999.0,55,-99.99,,,0.00,Acu-Link.com,2013-03-28 21:16:00,
2013-03-28 16:01:00,52.5,34.9,30.02,ESE,112,5.1,-999.0,51,-99.99,,,0.00,Acu-Link.com,2013-03-28 22:01:00,
2013-03-28 16:17:00,52.2,34.6,30.02,East,90,6.7,-999.0,51,-99.99,,,0.00,Acu-Link.com,2013-03-28 22:17:00,
2013-03-28 16:32:00,52.5,34.9,30.02,ESE,112,7.4,-999.0,51,-99.99,,,0.00,Acu-Link.com,2013-03-28 22:32:00,
2013-03-28 16:47:00,52.7,34.6,30.02,ESE,112,8.9,-999.0,50,-99.99,,,0.00,Acu-Link.com,2013-03-28 22:47:00,
2013-03-28 17:03:00,52.5,34.4,30.02,East,90,5.8,-999.0,50,-99.99,,,0.00,Acu-Link.com,2013-03-28 23:03:00,
2013-03-28 17:18:00,52.5,33.9,30.02,ESE,112,4.3,-999.0,49,-99.99,,,0.00,Acu-Link.com,2013-03-28 23:18:00,
2013-03-28 17:33:00,52.5,33.4,30.02,ENE,67,7.4,-999.0,48,-99.99,,,0.00,Acu-Link.com,2013-03-28 23:33:00,
2013-03-28 17:49:00,52.0,33.4,30.02,East,90,7.4,-999.0,49,-99.99,,,0.00,Acu-Link.com,2013-03-28 23:49:00,
2013-03-28 18:04:00,50.9,34.4,30.03,South,180,4.3,-999.0,53,-99.99,,,0.00,Acu-Link.com,2013-03-29 00:04:00,
2013-03-28 18:19:00,50.0,34.9,30.03,East,90,6.3,-999.0,56,-99.99,,,0.00,Acu-Link.com,2013-03-29 00:19:00,
2013-03-28 18:34:00,46.6,36.2,30.03,East,90,9.4,-999.0,67,-99.99,,,0.00,Acu-Link.com,2013-03-29 00:34:00,
2013-03-28 18:50:00,45.3,36.1,30.04,ESE,112,7.8,-999.0,70,-99.99,,,0.00,Acu-Link.com,2013-03-29 00:50:00,
2013-03-28 19:05:00,43.0,34.9,30.05,ENE,67,7.4,-999.0,73,-99.99,,,0.00,Acu-Link.com,2013-03-29 01:05:00,
2013-03-28 19:20:00,40.8,33.9,30.04,ESE,112,5.8,-999.0,76,-99.99,,,0.00,Acu-Link.com,2013-03-29 01:20:00,
2013-03-28 19:35:00,40.1,33.5,30.04,ENE,67,5.8,-999.0,77,-99.99,,,0.00,Acu-Link.com,2013-03-29 01:35:00,
2013-03-28 19:51:00,38.7,32.4,30.05,ESE,112,5.1,-999.0,78,-99.99,,,0.00,Acu-Link.com,2013-03-29 01:51:00,
2013-03-28 20:21:00,37.4,31.5,30.06,East,90,6.3,-999.0,79,-99.99,,,0.00,Acu-Link.com,2013-03-29 02:21:00,
2013-03-28 20:37:00,36.3,31.4,30.06,ENE,67,5.1,-999.0,82,-99.99,,,0.00,Acu-Link.com,2013-03-29 02:37:00,
2013-03-28 20:52:00,35.2,30.6,30.07,East,90,6.3,-999.0,83,-99.99,,,0.00,Acu-Link.com,2013-03-29 02:52:00,
2013-03-28 21:07:00,35.1,30.7,30.07,ESE,112,5.1,-999.0,84,-99.99,,,0.00,Acu-Link.com,2013-03-29 03:07:00,
2013-03-28 21:22:00,34.5,30.2,30.07,East,90,6.7,-999.0,84,-99.99,,,0.00,Acu-Link.com,2013-03-29 03:22:00,
2013-03-28 21:38:00,33.6,29.9,30.07,ENE,67,3.1,-999.0,86,-99.99,,,0.00,Acu-Link.com,2013-03-29 03:38:00,
2013-03-28 21:53:00,33.1,29.4,30.06,ENE,67,2.2,-999.0,86,-99.99,,,0.00,Acu-Link.com,2013-03-29 03:53:00,
2013-03-28 22:08:00,32.7,29.3,30.07,ESE,112,3.1,-999.0,87,-99.99,,,0.00,Acu-Link.com,2013-03-29 04:08:00,
2013-03-28 22:23:00,32.4,28.9,30.06,East,90,3.1,-999.0,87,-99.99,,,0.00,Acu-Link.com,2013-03-29 04:23:00,
2013-03-28 22:38:00,32.0,28.6,30.07,East,90,2.2,-999.0,87,-99.99,,,0.00,Acu-Link.com,2013-03-29 04:38:00,
2013-03-28 22:54:00,31.1,27.7,30.07,ESE,112,2.7,-999.0,87,-99.99,,,0.00,Acu-Link.com,2013-03-29 04:54:00,
2013-03-28 23:09:00,30.2,27.4,30.07,ESE,112,2.2,-999.0,89,-99.99,,,0.00,Acu-Link.com,2013-03-29 05:09:00,
2013-03-28 23:24:00,29.5,26.9,30.06,ESE,112,0.0,-999.0,90,-99.99,,,0.00,Acu-Link.com,2013-03-29 05:24:00,
2013-03-28 23:40:00,29.3,27.3,30.06,ESE,112,2.2,-999.0,92,-99.99,,,0.00,Acu-Link.com,2013-03-29 05:40:00,
2013-03-28 23:55:00,28.9,26.9,30.06,ESE,112,1.1,-999.0,92,-99.99,,,0.00,Acu-Link.com,2013-03-29 05:55:00,